Weather in Gramado

Brazil     29°23′34″S   50°53′02″W
temp.,
°C
wind,
m/s
gust,
m/s
humid.,
%
clouds,
%
prec.,
mm/h
press.,
hPa
HPBL,
m
15 may, sat
sat1500:00+9nne11890 0.0 102119
03:00+9n11890 0.0 102013
06:00+8nne11890 0.0 102113
09:00+14nne11640 0.0 1021159
12:00+20ssw11450 0.0 1020936
15:00+20s21500 0.0 1018791
18:00+13e11860 0.0 101910
21:00+11ne11925 0.0 102120
16 may, sun
sun1600:00+10nne119318 0.0 102018
03:00+10n11935 0.0 101916
06:00+9nne119392 0.0 102017
09:00+14n017295 0.0 1020139
12:00+21ssw125149 0.0 1019975
15:00+20s2156100 0.0 1017775
18:00+14s00905 0.0 101910
21:00+12nne11975 0.0 101914
17 may, mon
mon1700:00+11nnw11975 0.0 101812
03:00+11n11971 0.0 101717
06:00+10nnw11981 0.0 101813
09:00+15wnw12770 0.0 1019253
12:00+18wsw24610 0.0 10181121
15:00+19wsw35560 0.0 10161317
18:00+12nw11840 0.0 101814
21:00+11nne11870 0.0 101911
18 may, tue
tue1800:00+9nne11960 0.0 102011
03:00+8n11975 0.0 102012
06:00+7n11982 0.0 102012
09:00+12wnw11755 0.0 1021251
12:00+16sw12503 0.0 1020959
15:00+17sw22465 0.0 10181020
18:00+10n117775 0.0 101910
21:00+9n11830 0.0 102010
19 may, wed
wed1900:00+7nne11880 0.0 102013
03:00+7n11920 0.0 101912
06:00+6n11930 0.0 101916
09:00+12nnw01685 0.0 1019206
12:00+17sw224643 0.0 1018890
15:00+17sw224596 0.0 1017815
18:00+10ne01771 0.0 101810
21:00+8ne11831 0.0 101916